Clarksburg, WV

7:03 PM EST on December 08, 2019 (GMT -0500)
Benedum

Weather History for KCKB - October, 2019

Change the Weather History Date:

Monday, October 21, 2019

  Actual Average Record
Temperature  
Mean Temperature 65 °F -  
Max Temperature 83 °F 62 °F 83 °F (2019)
Min Temperature 46 °F 37 °F 16 °F (1952)
Growing Degree Days 14 (Base 50)    
Moisture  
Dew Point 47 °F    
Average Humidity 59    
Maximum Humidity 93    
Minimum Humidity 24    
Precipitation  
Precipitation 0.00 in - - ()
Month to date precipitation 1.61  
Year to date precipitation 33.68  
Sea Level Pressure  
Sea Level Pressure 29.96 in    
Wind  
Wind Speed 4 mph (SE)    
Max Wind Speed 16 mph    
Max Gust Speed 21 mph    
Visibility 5 miles    
Events Fog    
Averages and records for this station are not official NWS values.
T = Trace of Precipitation, MM = Missing Value Source: NWS Daily Summary

Daily Weather History Graph

Daily Weather History Graph

Search for Another Location

Airport or City:

Astronomy

Oct. 21, 2019 Rise Set
Actual Time 7:36 AM EDT 6:33 PM EDT
Civil Twilight 7:09 AM EDT 7:01 PM EDT
Nautical Twilight 6:38 AM EDT 7:32 PM EDT
Astronomical Twilight 6:07 AM EDT 8:03 PM EDT
Moon No Moon Rise 2:52 PM EDT (10/21)
Length of Visible Light 11h 51m
Length of Day
10h 57m
Waning Gibbous, 48% of the Moon is Illuminated
Oct 21
Waning Gibbous
Oct 27
New
Nov 4
First Quarter
Nov 12
Full
Nov 19
Last Quarter

Hourly Weather History & Observations

Time (EDT) Temp. Dew Point Humidity Pressure Visibility Wind Dir Wind Speed Gust Speed Precip Events Conditions
12:44 AM 52.0 °F 48.0 °F 86% 30.01 in 0.2 mi Calm Calm - N/A Fog Fog
12:53 AM 51.1 °F 46.9 °F 86% 30.00 in 0.2 mi Calm Calm - N/A Fog Fog
1:53 AM 48.9 °F 46.9 °F 93% 30.00 in 0.2 mi Calm Calm - N/A Fog Fog
2:14 AM 48.9 °F 46.0 °F 90% 30.02 in 3.0 mi Calm Calm - N/A   Scattered Clouds
2:16 AM 48.9 °F 46.0 °F 90% 30.02 in 1.8 mi Calm Calm - N/A   Scattered Clouds
2:24 AM 48.9 °F 46.0 °F 90% 30.02 in 0.8 mi Calm Calm - N/A   Mist
2:53 AM 48.9 °F 46.0 °F 90% 30.00 in 0.2 mi Calm Calm - N/A Fog Fog
3:53 AM 46.9 °F 44.1 °F 90% 30.00 in 0.2 mi Calm Calm - N/A Fog Fog
4:53 AM 48.0 °F 45.0 °F 89% 29.99 in 0.2 mi Calm Calm - N/A Fog Fog
5:53 AM 48.0 °F 45.0 °F 89% 30.00 in 0.2 mi Calm Calm - N/A Fog Fog
6:12 AM 46.9 °F 44.1 °F 90% 30.03 in 0.5 mi Calm Calm - N/A Fog Fog
6:20 AM 46.9 °F 45.0 °F 93% 30.03 in 1.0 mi Calm Calm - N/A   Overcast
6:28 AM 48.0 °F 45.0 °F 89% 30.02 in 3.0 mi Calm Calm - N/A   Overcast
6:53 AM 48.9 °F 46.0 °F 90% 30.01 in 5.0 mi Calm Calm - N/A   Overcast
7:10 AM 48.0 °F 45.0 °F 89% 30.02 in 8.0 mi Calm Calm - N/A   Mostly Cloudy
7:14 AM 46.9 °F 45.0 °F 93% 30.02 in 2.0 mi Calm Calm - N/A   Scattered Clouds
7:53 AM 46.9 °F 44.1 °F 90% 30.00 in 5.0 mi Calm Calm - N/A   Partly Cloudy
8:53 AM 53.1 °F 50.0 °F 89% 30.00 in 5.0 mi Calm Calm - N/A   Clear
9:53 AM 57.0 °F 54.0 °F 89% 30.00 in 10.0 mi Calm Calm - N/A   Clear
10:53 AM 64.9 °F 51.1 °F 61% 29.98 in 10.0 mi East 8.1 mph - N/A   Clear
11:53 AM 70.0 °F 48.9 °F 47% 29.95 in 10.0 mi SE 6.9 mph - N/A   Clear
12:53 PM 75.9 °F 45.0 °F 33% 29.92 in 10.0 mi East 8.1 mph - N/A   Clear
1:53 PM 79.0 °F 45.0 °F 30% 29.88 in 10.0 mi SE 10.4 mph - N/A   Clear
2:53 PM 82.9 °F 42.1 °F 24% 29.85 in 10.0 mi Variable 5.8 mph - N/A   Clear
3:53 PM 82.0 °F 45.0 °F 27% 29.84 in 10.0 mi South 11.5 mph 19.6 mph N/A   Clear
4:53 PM 80.1 °F 45.0 °F 29% 29.84 in 10.0 mi SSE 10.4 mph - N/A   Clear
5:53 PM 75.9 °F 48.0 °F 37% 29.85 in 10.0 mi South 8.1 mph - N/A   Clear
6:53 PM 73.0 °F 50.0 °F 44% 29.86 in 10.0 mi SSE 6.9 mph - N/A   Scattered Clouds
7:53 PM 70.0 °F 50.0 °F 49% 29.88 in 10.0 mi SE 6.9 mph - N/A   Mostly Cloudy
8:53 PM 69.1 °F 51.1 °F 53% 29.86 in 10.0 mi Variable 3.5 mph - N/A   Partly Cloudy
9:53 PM 66.9 °F 51.1 °F 57% 29.86 in 10.0 mi SSE 3.5 mph - N/A   Partly Cloudy